This demonstration page uses our WeatherBlox Daily Observations layout. Learn more.

Left ArrowRight Arrow

Hourly Observations for April 9, 2018

Temp ( °F °C ) Dew Point ( °F °C ) Humidity (%) Winds ( mph kmh ) Pressure ( in mb ) Visibility ( mi km ) Precip ( " mm )
12:59 am 00:59 Mostly Cloudy 41 5 32 0 70 70 SSE 6 9 30.11 1020 10 16 0.00 0.00
1:59 am 01:59 Cloudy 41 5 32 0 70 70 ESE 5 7 30.11 1020 10 16 0.00 0.00
2:59 am 02:59 Cloudy 40 4.4 32 0 73 73 Calm 30.14 1021 10 16 0.00 0.00
3:59 am 03:59 Cloudy 42 5.6 34 1.1 73 73 E 5 7 30.14 1021 10 16 0.00 0.00
4:59 am 04:59 Cloudy 43 6.1 34 1.1 71 71 E 7 11 30.12 1020 10 16 0.00 0.00
5:59 am 05:59 Cloudy 44 6.7 33 0.6 65 65 E 6 9 30.13 1020 10 16 0.00 0.00
6:59 am 06:59 Cloudy 44 6.7 31 -0.6 60 60 ESE 5 7 30.16 1021 10 16 0.00 0.00
7:59 am 07:59 Cloudy 45 7.2 30 -1.1 56 56 E 7 11 30.18 1022 10 16 0.00 0.00
8:59 am 08:59 Cloudy 46 7.8 30 -1.1 54 54 E 10 17 30.22 1024 10 16 0.00 0.00
9:59 am 09:59 Cloudy 46 7.8 34 1.1 63 63 E 10 17 30.22 1024 10 16 0.00 0.00
10:59 am 10:59 Cloudy 46 7.8 31 -0.6 56 56 E 12 19 30.23 1024 10 16 0.00 0.00
11:59 am 11:59 Cloudy 50 10 33 0.6 52 52 E 15 24 30.22 1023 10 16 0.00 0.00
12:59 pm 12:59 Mostly Cloudy 49 9.4 32 0 52 52 E 18 30 30.19 1023 10 16 0.00 0.00
1:59 pm 13:59 Mostly Cloudy 48 8.9 35 1.7 61 61 E 15 24 30.19 1022 10 16 0.00 0.00
2:59 pm 14:59 Mostly Cloudy 48 8.9 36 2.2 63 63 E 14 22 30.16 1021 10 16 0.00 0.00
3:59 pm 15:59 Cloudy 49 9.4 35 1.7 59 59 SSE 7 11 30.14 1021 10 16 0.00 0.00
4:59 pm 16:59 Cloudy 48 8.9 35 1.7 61 61 ESE 5 7 30.15 1021 10 16 0.00 0.00
5:59 pm 17:59 Cloudy 46 7.8 37 2.8 71 71 E 10 17 30.15 1021 10 16 0.00 0.00
6:59 pm 18:59 Cloudy 45 7.2 36 2.2 71 71 ESE 8 13 30.14 1021 10 16 0.00 0.00
7:59 pm 19:59 Cloudy 46 7.8 35 1.7 66 66 ESE 8 13 30.14 1021 10 16 0.00 0.00
8:59 pm 20:59 Cloudy with Haze 46 7.8 37 2.8 71 71 E 8 13 30.16 1021 6 10 0.00 0.00
9:59 pm 21:59 Cloudy with Light Rain 45 7.2 38 3.3 77 77 E 9 15 30.16 1022 5 8 0.00 0.03
10:29 pm 22:29 Cloudy 45 7.2 39 3.9 80 80 E 6 9 30.15 1021 10 16 0.00 0.03
10:59 pm 22:59 Cloudy 45 7.2 39 3.9 80 80 ESE 8 13 30.15 1021 9 14 0.00 0.03
11:59 pm 23:59 Cloudy 46 7.8 38 3.3 73 73 Calm 30.14 1021 10 16 0.00 0.00

Powered by AerisWeather